Weather History for Highgate, VT

Change the Weather History Date:

Friday, June 28, 2013

  Actual Average (KPBG) Record (KPBG)
Temperature  
Mean Temperature 67 °F 67 °F  
Max Temperature 77 °F 78 °F 95 °F (1991)
Min Temperature 57 °F 56 °F 43 °F (1988)
Cooling Degree Days 2 3  
Month to date cooling degree days 54  
Year to date cooling degree days 62  
Since 1 June cooling degree days 54  
Growing Degree Days 17 (Base 50)    
Moisture  
Dew Point 59 °F    
Average Humidity 81    
Maximum Humidity 93    
Minimum Humidity 57    
Precipitation  
Precipitation 0.00 in - 1.15 in (2013)
Month to date precipitation  
Year to date precipitation  
Sea Level Pressure  
Sea Level Pressure 29.52 in    
Wind  
Wind Speed 6 mph (North)    
Max Wind Speed 13 mph    
Max Gust Speed 25 mph    
Visibility 9 miles    
Events Rain    
T = Trace of Precipitation, MM = Missing Value Source: NWS Daily Summary

Daily Weather History Graph

Daily Weather History Graph

Search for Another Location

Airport:

Trip Planner

Search our weather history database for the weather conditions in past years. The results will help you decide how hot, cold, wet, or windy it might be!

Date:

Astronomy

Jun. 28, 2013 Rise Set
Actual Time 5:08 AM EDT 8:42 PM EDT
Civil Twilight 4:31 AM EDT 9:20 PM EDT
Nautical Twilight 3:41 AM EDT 10:09 PM EDT
Astronomical Twilight 2:36 AM EDT 11:14 PM EDT
Moon 11:52 PM EDT 11:29 AM EDT
Length of Visible Light 16h 49m
Length of Day
15h 34m
Waning Gibbous, 66% of the Moon is Illuminated
Jun 28
Waning Gibbous
Jun 30
Last Quarter
Jul 8
New
Jul 15
First Quarter
Jul 22
Full

Hourly Weather History & Observations

Time (EDT) Temp. Dew Point Humidity Pressure Visibility Wind Dir Wind Speed Gust Speed Precip Events Conditions
12:15 AM 61.9 °F 58.5 °F 89% 29.72 in 10.0 mi North 6.9 mph - N/A   Scattered Clouds
12:35 AM 61.9 °F 58.3 °F 88% 29.72 in 10.0 mi North 4.6 mph - N/A   Scattered Clouds
12:55 AM 60.8 °F 57.2 °F 88% 29.72 in 7.0 mi North 5.8 mph - N/A Rain Rain
1:15 AM 59.4 °F 55.9 °F 88% 29.71 in 10.0 mi North 5.8 mph - N/A Rain Light Rain
1:35 AM 59.4 °F 56.1 °F 89% 29.71 in 10.0 mi North 3.5 mph - N/A Rain Light Rain
1:55 AM 59.4 °F 56.3 °F 90% 29.70 in 10.0 mi North 5.8 mph - N/A   Scattered Clouds
2:15 AM 59.4 °F 56.3 °F 90% 29.69 in 10.0 mi North 8.1 mph - N/A   Mostly Cloudy
2:35 AM 59.4 °F 56.3 °F 90% 29.68 in 10.0 mi North 4.6 mph - N/A   Light Drizzle
2:55 AM 58.8 °F 55.8 °F 90% 29.67 in 10.0 mi North 4.6 mph - N/A   Overcast
3:15 AM 57.9 °F 54.9 °F 90% 29.66 in 7.0 mi North 6.9 mph - N/A   Light Drizzle
3:35 AM 57.4 °F 54.5 °F 90% 29.66 in 7.0 mi North 4.6 mph - N/A Rain Light Rain
3:55 AM 57.6 °F 54.7 °F 90% 29.65 in 7.0 mi North 4.6 mph - N/A   Overcast
4:15 AM 57.4 °F 54.5 °F 90% 29.64 in 7.0 mi North 4.6 mph - N/A Rain Light Rain
4:35 AM 57.4 °F 54.7 °F 91% 29.63 in 7.0 mi North 3.5 mph - N/A Rain Light Rain
4:55 AM 57.4 °F 54.7 °F 91% 29.62 in 7.0 mi North 4.6 mph - N/A Rain Light Rain
5:15 AM 57.6 °F 54.9 °F 91% 29.62 in 7.0 mi North 3.5 mph - N/A Rain Rain
5:35 AM 57.9 °F 55.2 °F 91% 29.61 in 5.0 mi North 5.8 mph - N/A Rain Light Rain
5:55 AM 58.1 °F 55.6 °F 91% 29.60 in 5.0 mi North 4.6 mph - N/A Rain Rain
6:15 AM 59.2 °F 56.7 °F 91% 29.59 in 5.0 mi North 5.8 mph - N/A Rain Rain
6:35 AM 59.4 °F 57.2 °F 93% 29.59 in 5.0 mi North 4.6 mph - N/A Rain Light Rain
6:55 AM 59.4 °F 57.2 °F 93% 29.58 in 4.0 mi NNW 4.6 mph - N/A Rain Rain
7:15 AM 59.4 °F 57.2 °F 93% 29.57 in 5.0 mi NNE 6.9 mph - N/A Rain Light Rain
7:35 AM 59.4 °F 57.2 °F 93% 29.56 in 5.0 mi North 4.6 mph - N/A Rain Rain
7:55 AM 60.8 °F 58.3 °F 91% 29.55 in 5.0 mi North 4.6 mph - N/A Rain Light Rain
8:15 AM 61.0 °F 58.6 °F 92% 29.53 in 4.0 mi North 4.6 mph - N/A Rain Rain
8:55 AM 62.6 °F 60.3 °F 92% 29.49 in 2.0 mi NNE 6.9 mph - N/A Rain Heavy Rain
9:15 AM 63.9 °F 61.7 °F 93% 29.48 in 10.0 mi NNE 4.6 mph - N/A Rain Light Rain
9:35 AM 64.4 °F 61.7 °F 91% 29.48 in 10.0 mi ENE 6.9 mph - N/A   Overcast
9:55 AM 64.4 °F 61.3 °F 90% 29.47 in 10.0 mi ENE 4.6 mph - N/A Rain Rain
10:15 AM 64.4 °F 61.0 °F 89% 29.46 in 10.0 mi NE 4.6 mph - N/A   Overcast
10:35 AM 64.9 °F 61.2 °F 88% 29.45 in 10.0 mi ENE 6.9 mph - N/A   Overcast
10:55 AM 67.1 °F 62.4 °F 85% 29.45 in 10.0 mi East 6.9 mph - N/A   Overcast
11:15 AM 68.5 °F 63.1 °F 83% 29.43 in 10.0 mi ENE 5.8 mph - N/A   Overcast
11:35 AM 69.4 °F 63.5 °F 81% 29.43 in 10.0 mi ENE 4.6 mph - N/A   Overcast
11:55 AM 69.4 °F 63.5 °F 81% 29.42 in 10.0 mi ENE 3.5 mph - N/A   Overcast
12:15 PM 69.4 °F 62.1 °F 77% 29.42 in 10.0 mi ESE 10.4 mph 16.1 mph N/A   Overcast
12:35 PM 69.4 °F 61.9 °F 77% 29.41 in 7.0 mi ESE 10.4 mph 20.7 mph N/A   Overcast
12:55 PM 69.4 °F 61.9 °F 77% 29.40 in 10.0 mi ESE 12.7 mph 25.3 mph N/A   Overcast
1:15 PM 69.4 °F 63.0 °F 80% 29.39 in 5.0 mi ESE 10.4 mph - N/A Rain Rain
1:35 PM 69.4 °F 62.1 °F 77% 29.39 in 10.0 mi ESE 10.4 mph 17.3 mph N/A   Overcast
1:55 PM 74.3 °F 64.9 °F 72% 29.38 in 10.0 mi SE 11.5 mph 20.7 mph N/A   Overcast
2:15 PM 74.5 °F 64.4 °F 71% 29.39 in 10.0 mi South 5.8 mph 18.4 mph N/A   Overcast
2:35 PM 74.5 °F 63.5 °F 68% 29.40 in 10.0 mi South 11.5 mph 18.4 mph N/A   Overcast
2:55 PM 74.7 °F 62.8 °F 66% 29.40 in 10.0 mi South 10.4 mph - N/A   Overcast
3:15 PM 77.0 °F 64.0 °F 64% 29.40 in 10.0 mi South 6.9 mph 16.1 mph N/A   Overcast
3:35 PM 77.0 °F 64.6 °F 65% 29.41 in 10.0 mi SW 9.2 mph - N/A   Mostly Cloudy
3:55 PM 77.0 °F 63.1 °F 62% 29.41 in 10.0 mi SW 8.1 mph 19.6 mph N/A   Overcast
4:15 PM 74.8 °F 61.3 °F 63% 29.42 in 10.0 mi SW 9.2 mph 17.3 mph N/A   Mostly Cloudy
4:35 PM 74.5 °F 62.1 °F 65% 29.43 in 10.0 mi SW 9.2 mph - N/A   Overcast
4:55 PM 73.8 °F 60.4 °F 63% 29.44 in 10.0 mi SW 6.9 mph - N/A   Overcast
5:15 PM 74.5 °F 61.5 °F 64% 29.45 in 10.0 mi SW 9.2 mph - N/A   Overcast
5:35 PM 71.2 °F 58.8 °F 65% 29.46 in 10.0 mi WSW 5.8 mph - N/A   Overcast
5:55 PM 74.5 °F 59.4 °F 59% 29.46 in 10.0 mi WSW 5.8 mph - N/A   Mostly Cloudy
6:15 PM 74.5 °F 58.8 °F 58% 29.47 in 10.0 mi West 3.5 mph - N/A   Scattered Clouds
6:35 PM 74.5 °F 59.2 °F 59% 29.47 in 10.0 mi West 5.8 mph - N/A   Scattered Clouds
6:55 PM 74.5 °F 58.5 °F 57% 29.48 in 10.0 mi SW 5.8 mph - N/A   Scattered Clouds
7:15 PM 73.9 °F 58.6 °F 59% 29.48 in 10.0 mi West 3.5 mph - N/A   Scattered Clouds
7:35 PM 72.0 °F 57.9 °F 61% 29.49 in 10.0 mi WNW 4.6 mph - N/A   Scattered Clouds
7:55 PM 69.4 °F 56.8 °F 64% 29.48 in 10.0 mi Calm Calm - N/A   Clear
8:15 PM 69.4 °F 59.4 °F 70% 29.49 in 10.0 mi NW 3.5 mph - N/A   Clear
8:35 PM 66.6 °F 58.1 °F 74% 29.50 in 10.0 mi Calm Calm - N/A   Clear
8:55 PM 64.4 °F 57.4 °F 78% 29.51 in 10.0 mi Calm Calm - N/A   Clear
9:15 PM 62.8 °F 56.5 °F 80% 29.51 in 10.0 mi Calm Calm - N/A   Clear
9:35 PM 61.7 °F 56.7 °F 84% 29.51 in 4.0 mi Calm Calm - N/A   Haze
9:55 PM 61.0 °F 56.7 °F 86% 29.51 in 10.0 mi ENE 3.5 mph - N/A   Clear
10:15 PM 60.8 °F 56.8 °F 87% 29.52 in 10.0 mi Calm Calm - N/A   Clear
10:35 PM 60.8 °F 57.2 °F 88% 29.51 in 10.0 mi Calm Calm - N/A   Scattered Clouds
10:55 PM 60.3 °F 57.0 °F 89% 29.51 in 10.0 mi Calm Calm - N/A   Mostly Cloudy
11:15 PM 59.4 °F 56.1 °F 89% 29.51 in 10.0 mi Calm Calm - N/A   Mostly Cloudy
11:35 PM 59.4 °F 56.3 °F 90% 29.51 in 10.0 mi ENE 3.5 mph - N/A   Scattered Clouds
11:55 PM 60.4 °F 57.4 °F 90% 29.51 in 10.0 mi ENE 3.5 mph - N/A   Mostly Cloudy